TimeCDT,TemperatureF,Dew PointF,Humidity,Sea Level PressureIn,VisibilityMPH,Wind Direction,Wind SpeedMPH,Gust SpeedMPH,PrecipitationIn,Events,Conditions,WindDirDegrees,DateUTC
12:54 AM,57.0,48.0,72,29.76,10.0,South,4.6,-,N/A,,Clear,180,2013-10-01 05:54:00
1:54 AM,57.0,48.9,74,29.75,10.0,South,6.9,-,N/A,,Clear,180,2013-10-01 06:54:00
2:54 AM,55.9,50.0,80,29.74,10.0,South,5.8,-,N/A,,Clear,180,2013-10-01 07:54:00
3:54 AM,57.9,52.0,81,29.73,10.0,South,6.9,-,N/A,,Clear,190,2013-10-01 08:54:00
4:54 AM,57.9,53.1,84,29.73,10.0,South,8.1,-,N/A,,Clear,190,2013-10-01 09:54:00
5:54 AM,57.9,54.0,87,29.74,10.0,South,8.1,-,N/A,,Clear,180,2013-10-01 10:54:00
6:54 AM,57.9,55.0,90,29.73,10.0,South,10.4,-,N/A,,Clear,190,2013-10-01 11:54:00
7:54 AM,57.9,55.0,90,29.75,10.0,SSW,6.9,-,N/A,,Clear,200,2013-10-01 12:54:00
8:54 AM,63.0,55.9,78,29.75,10.0,SW,11.5,-,N/A,,Clear,220,2013-10-01 13:54:00
9:54 AM,68.0,55.0,63,29.77,10.0,WSW,13.8,27.6,N/A,,Clear,240,2013-10-01 14:54:00
10:54 AM,68.0,55.0,63,29.78,10.0,WSW,13.8,21.9,N/A,,Clear,250,2013-10-01 15:54:00
11:54 AM,71.1,55.0,57,29.80,10.0,West,11.5,-,N/A,,Clear,270,2013-10-01 16:54:00
12:54 PM,75.9,55.9,50,29.80,10.0,West,10.4,19.6,N/A,,Clear,270,2013-10-01 17:54:00
1:54 PM,77.0,52.0,42,29.81,10.0,West,15.0,20.7,N/A,,Clear,280,2013-10-01 18:54:00
2:54 PM,77.0,50.0,39,29.81,10.0,West,15.0,20.7,N/A,,Clear,270,2013-10-01 19:54:00
3:54 PM,77.0,42.1,29,29.82,10.0,West,12.7,21.9,N/A,,Clear,260,2013-10-01 20:54:00
4:54 PM,75.0,42.1,31,29.85,10.0,WNW,11.5,-,N/A,,Clear,290,2013-10-01 21:54:00
5:54 PM,71.1,37.9,30,29.87,10.0,West,9.2,-,N/A,,Clear,270,2013-10-01 22:54:00
6:54 PM,64.9,37.0,36,29.89,10.0,West,6.9,-,N/A,,Clear,270,2013-10-01 23:54:00
7:54 PM,61.0,37.0,41,29.91,10.0,West,6.9,-,N/A,,Clear,280,2013-10-02 00:54:00
8:54 PM,57.0,39.0,51,29.93,10.0,West,3.5,-,N/A,,Clear,270,2013-10-02 01:54:00
9:54 PM,57.0,37.9,49,29.94,10.0,West,4.6,-,N/A,,Clear,270,2013-10-02 02:54:00
10:54 PM,53.1,39.0,59,29.96,10.0,West,4.6,-,N/A,,Clear,270,2013-10-02 03:54:00
11:54 PM,48.9,39.0,69,29.98,10.0,West,4.6,-,N/A,,Clear,270,2013-10-02 04:54:00